Weather in Kabul

Afghanistan     34˚30′55″N   69˚10′34″E
temp.,
°C
wind,
m/s
gust,
m/s
humid.,
%
clouds,
%
prec.,
mm/h
press.,
hPa
HPBL,
m
2 december, wed
wed201:30+6˚ssw22490 0.0 102422
04:30+5˚ssw23500 0.0 102422
07:30+5˚ssw33480 0.0 102528
10:30+10˚ssw33330 0.0 1023346
13:30+12˚ssw33280 0.0 1020480
16:30+10˚ssw23360 0.0 102026
19:30+8˚sw22420 0.0 102222
22:30+7˚ssw23430 0.0 102222
3 december, thu
thu301:30+5˚ssw23450 0.0 102122
04:30+4˚ssw23480 0.0 102122
07:30+4˚ssw33480 0.0 102239
10:30+9˚ssw34330 0.0 1021323
13:30+12˚ssw34290 0.0 1018414
16:30+10˚ssw22380 0.0 101824
19:30+8˚ssw22440 0.0 102022
22:30+6˚ssw22470 0.0 101922
4 december, fri
fri401:30+5˚ssw125133 0.0 101922
04:30+4˚ssw225348 0.0 101822
07:30+4˚ssw22560 0.0 101922
10:30+9˚sw11398 0.0 1018360
13:30+11˚wnw11330 0.0 10161031
16:30+9˚nnw223940 0.0 101737
19:30+7˚se1166100 0.3 1020134
22:30+5˚n117361 0.3 102122
5 december, sat
sat501:30+3˚n005673 0.0 102122
04:30+2˚nnw015659 0.0 102122
07:30+3˚ssw116241 0.0 102222
10:30+7˚sw224621 0.0 1020596
13:30+9˚sw12330 0.0 10171016
16:30+7˚nw11378 0.0 101822
19:30+5˚n114928 0.0 102122
22:30+3˚wsw005549 0.0 102222
6 december, sun
sun601:30+2˚w005622 0.0 102222
04:30+1˚wsw115613 0.0 102222
07:30+2˚ssw12508 0.0 102422
10:30+6˚sw11354 0.0 1023503
13:30+8˚nnw013178 0.0 1020961
16:30+7˚n123888 0.0 102122
19:30+5˚nnw0144100 0.0 102222
22:30+5˚sse1145100 0.0 102222